Вернуться в каталог

COSMOS 1375 DEB

АктивенLEO
NORAD 17801·DEBRIS·🇷🇺 Russia

Запущен Jun 6, 1982 с Plesetsk Cosmodrome

Loading…

Ближайшие Пролёты (ближайшие 24 часа)

TLE

СвежийSource: Space-Track

Эпоха: Sep 14, 2026, 09:37 UTC

1 17801U 82055AT  26257.40137358  .00003034  00000-0  10137-2 0  9994
2 17801  65.8230  37.9215 0026090 193.7747 166.2640 14.38689789 98404

Отслеживайте COSMOS 1375 DEB в реальном времени с AllMySat

Download on the App Store